x

Portland 12 Nm Southeast Of Portland,me (44007) Wave Buoy

12:50 - Fri 24th Feb 2017 All times are EST. -5 hours from GMT.

  • Sig Wave height 4.3ft
  • Swell Direction
  • Peak Period 11s
  • Average Period 5s
  • Wind
    4mph, 7mph gusts
  • Sea Temp 39°f
  • Luft Temp 42°f
  • Sea Pressure 1010.1mb
  • Portland 12 Nm Southeast Of Portland,me
  • Portland 12 Nm Southeast Of Portland,me

More Historic Weather Station data

Upgrade to MSW Pro to gain access to the past 30 days of data for over 8000 Wavebouys and Weather Stations around the globe.

Join Pro

Comparision Forecast

View Surf forecast
   
Fr 02/24 12:50 4.5ft 11s 5s 4 7 mph 1010.1mb 39f 42f
Do 02/23 11:50 4.5ft 11s 5s 11 13 mph 1009.4mb 39f 44f
10:50 4.5ft 5s 5s 16 18 mph 1008.3mb 39f 44f
9:50 4.5ft 5s 5s 16 18 mph 1007.9mb 39f 44f
8:50 4.5ft 5s 5s 16 18 mph 1007.4mb 39f 44f
7:50 4ft 11s 5s 16 18 mph 1006.8mb 39f 44f
6:50 4.5ft 12s 5s 16 20 mph 1006.3mb 39f 44f
5:50 4ft 9s 5s 11
mph
1006.4mb 39f 43f
4:50 3.5ft 10s 5s 9 13 mph 1006mb 39f 44f
3:50 3.5ft 10s 6s 16 18 mph 1004.9mb 39f 44f
2:50 3ft 9s 5s 16 18 mph 1006.1mb 39f 43f
1:50 3ft 9s 6s 11 13 mph 1007.1mb 39f 42f
12:50 2.5ft 10s 7s 9
mph
1008.1mb 39f 41f
11:50 2.5ft 10s 7s 7
mph
1009mb 39f 41f
10:50 2.5ft 10s 7s 9 11 mph 1009.7mb 39f 41f
9:50 2.5ft 10s 7s 7
mph
1010.2mb 39f 39f
8:50 2.5ft 10s 7s 4
mph
1010.8mb 39f 37f
7:50 2.5ft 11s 7s 4 7 mph 1011.1mb 39f 36f
6:50 2.5ft 10s 7s 9
mph
1011.1mb 38f 37f
5:50 3ft 8s 7s 2
mph
1010.9mb 38f 39f
12:50 2.5ft 10s 7s 2
mph
1012.2mb 38f 38f
Mi 02/22 11:50 2.5ft 10s 7s  -  2 mph 1012.2mb 38f 38f
10:50 2.5ft 10s 7s 2
mph
1012.4mb 39f 38f
9:50 2.5ft 10s 7s 4 7 mph 1012.3mb 39f 39f
8:50 2.5ft 10s 6s 7
mph
1012.5mb 39f 39f
7:50 2.5ft 11s 6s 2 4 mph 1012.5mb 39f 39f
6:50 2.5ft 11s 6s  -  2 mph 1012.8mb 39f 39f
5:50 2.5ft 11s 6s 4
mph
1012.9mb 39f 40f
4:50 2.5ft 8s 5s 7
mph
1012.7mb 40f 40f
3:50 2ft 8s 5s 7 9 mph 1012.6mb 40f 41f
2:50 2ft 5s 5s 9
mph
1012.7mb 39f 40f
1:50 2ft 5s 5s 4 7 mph 1013.1mb 39f 40f
12:50 2.5ft 5s 5s 4
mph
1013.3mb 39f 39f
11:50 2.5ft 5s 5s 2
mph
1014.2mb 39f 40f
10:50 2.5ft 5s 5s 4
mph
1015mb 39f 38f
9:50 2.5ft 5s 5s 9 11 mph 1015.3mb 39f 38f
8:50 2.5ft 5s 5s 9 11 mph 1015.5mb 39f 38f
7:50 2.5ft 6s 5s 7 9 mph 1016mb 39f 38f
5:50 3.5ft 6s 5s 9 11 mph 1016.3mb 39f 38f
4:50 3.5ft 6s 5s 13 16 mph 1016.1mb 39f 38f
3:50 4ft 5s 4s 16 18 mph 1016.2mb 39f 38f
2:50 3.5ft 5s 4s 18 22 mph 1016.6mb 39f 39f
1:50 4ft 5s 4s 18 22 mph 1017mb 39f 39f
12:50 3.5ft 5s 4s 18 22 mph 1017.8mb 39f 39f
Di 02/21 10:50 3.5ft 4s 4s 18 20 mph 1019.3mb 39f 39f
9:50 2.5ft 4s 4s 18 20 mph 1020.2mb 38f 39f
8:50 2.5ft 3s 4s 18 20 mph 1021.2mb 38f 38f
7:50 2ft 7s 4s 16 18 mph 1021.5mb 38f 37f
6:50 2ft 3s 4s 16 18 mph 1022.8mb 38f 37f
5:50 2ft 6s 4s 13 18 mph 1023.2mb 39f 36f
4:50 1.6ft 6s 4s 11 13 mph 1023.7mb 39f 36f
3:50 1.6ft 6s 5s 11 13 mph 1024mb 39f 35f
2:50 1.6ft 6s 5s 11 13 mph 1025.1mb 39f 34f
1:50 1.6ft 6s 4s 7 9 mph 1026mb 39f 34f
12:50 2ft 6s 5s 4
mph
1026.8mb 39f 33f
11:50 2ft 6s 5s 4 7 mph 1027.4mb 39f 32f
10:50 2.5ft 6s 5s 4 7 mph 1028.3mb 39f 32f
9:50 2.5ft 6s 5s 4 7 mph 1029.1mb 38f 32f
8:50 2.5ft 6s 5s 7 9 mph 1029.1mb 38f 32f
7:50 2.5ft 6s 5s 7 9 mph 1029.1mb 38f 32f
6:50 2.5ft 6s 4s 7 11 mph 1028.9mb 38f 31f
5:50 2ft 5s 4s 7 9 mph 1028.6mb 38f 32f
4:50 1.6ft 6s 4s 9 11 mph 1028.5mb 39f 33f
3:50 1.6ft 3s 4s 13 16 mph 1028.2mb 39f 33f
2:50 1.3ft 8s 3s 16 20 mph 1028.1mb 39f 34f
1:50 1.3ft 9s 4s 13 16 mph 1028.4mb 39f 35f
12:50 1ft 9s 4s 11 13 mph 1028.2mb 39f 34f
Mo 02/20 11:50 1.3ft 8s 4s 13 16 mph 1027.8mb 39f 34f
10:50 1.3ft 10s 3s 13 16 mph 1027mb 39f 34f
9:50 1.6ft 3s 3s 16 18 mph 1026.5mb 39f 35f
8:50 1.6ft 3s 3s 18 22 mph 1026.1mb 39f 37f
7:50 1.3ft 3s 3s 20 25 mph 1025.5mb 39f 38f
6:50 1.3ft 8s 4s 16 18 mph 1024.8mb 39f 39f
5:50 1.6ft 3s 4s 13 16 mph 1024mb 39f 40f
4:50 1.6ft 9s 4s 18 20 mph 1022.7mb 39f 40f
3:50 1.6ft 8s 4s 18 20 mph 1022.3mb 39f 40f
2:50 1.6ft 8s 4s 16 18 mph 1021.5mb 39f 39f
1:50 1.6ft 8s 4s 13 18 mph 1020.7mb 39f 38f
12:50 2ft 8s 3s 13 16 mph 1020.9mb 39f 37f
11:50 2ft 3s 3s 20 22 mph 1020.8mb 39f 36f
10:50 1.6ft 3s 3s 20 25 mph 1020.9mb 39f 35f
9:50 2ft 3s 3s 20 25 mph 1020.5mb 39f 35f
8:50 2.5ft 3s 4s 18 20 mph 1020.1mb 38f 35f
7:50 2.5ft 3s 4s 20 27 mph 1018.7mb 38f 35f
6:50 2.5ft 4s 4s 20 22 mph 1017.7mb 38f 36f